Location: Rowland
(34.5359°N, 79.2929°W)
Time: 18:34:49
(UTC+00:00)

Transit 2A - Pass Details

Date: 06 October 2022
Orbit: 598 x 959 km, 66.7° (Epoch: 02 December)

Event Time Altitude Azimuth Distance (km) Brightness Sun altitude
Rises 02:07:19 0° 175° (S) 2,982 - -39.4°
Reaches altitude 10° 02:10:03 10° 160° (SSE) 2,024 - -39.9°
Maximum altitude 02:13:34 22° 109° (ESE) 1,340 - -40.6°
Drops below altitude 10° 02:16:57 10° 58° (ENE) 1,951 - -41.2°
Sets 02:19:32 0° 43° (NE) 2,845 - -41.7°
